This demonstration page uses our WeatherBlox Daily Observations layout. Learn more.

Left ArrowRight Arrow

47.50024, -111.30081

Hourly Observations for April 5, 2018

Temp ( °F °C ) Dew Point ( °F °C ) Humidity (%) Winds ( mph kmh ) Pressure ( in mb ) Visibility ( mi km ) Precip ( " mm )
12:01 am 00:01 Cloudy 22 -5.6 18 -7.8 85 85 NNW 23 37 30.27 1025 10 16 0.00 0.00
12:50 am 00:50 Cloudy 21 -6 18 -8 86 86 NNW 23 37 30.27 1025 9 14 0.00 0.00
12:53 am 00:53 Cloudy 21 -6.1 18 -7.8 88 88 NNW 17 28 30.19 1023 9 14 0.00 0.00
1:43 am 01:43 Cloudy with Light Snow 21 -6.1 17 -8.3 85 85 NNW 18 30 30.33 1027 2 3 0.00 0.03
1:53 am 01:53 Cloudy with Light Snow 20 -6.7 17 -8.3 89 89 N 14 22 30.26 1025 2 2 0.00 0.03
2:03 am 02:03 Cloudy with Light Snow 20 -6.7 17 -8.3 89 89 N 14 22 30.39 1029 2 3 0.00 0.03
2:53 am 02:53 Cloudy with Light Snow 20 -6.7 17 -8.3 89 89 N 12 19 30.29 1026 2 3 0.02 0.51
3:00 am 03:00 Cloudy with Light Snow 20 -6.7 17 -8.3 89 89 N 12 19 30.39 1029 2 2 0.00 0.03
3:17 am 03:17 Cloudy with Light Snow 19 -7.2 16 -8.9 88 88 NNW 15 24 30.39 1029 1 2 0.01 0.25
3:31 am 03:31 Cloudy with Light Snow 18 -7.8 15 -9.4 88 88 NNW 15 24 30.39 1029 1 2 0.02 0.51
3:51 am 03:51 Cloudy with Light Snow 18 -8 16 -9 93 93 NNW 10 17 30.42 1030 2 2 0.03 0.76
3:53 am 03:53 Cloudy with Light Snow 18 -7.8 15 -9.4 88 88 NNW 12 19 30.30 1026 2 2 0.03 0.76
4:06 am 04:06 Cloudy with Light Snow 18 -7.8 15 -9.4 88 88 NNW 10 17 30.39 1029 3 4 0.00 0.03
4:18 am 04:18 Cloudy with Light Snow 18 -7.8 15 -9.4 88 88 NNW 12 19 30.39 1029 3 5 0.00 0.03
4:27 am 04:27 Cloudy with Light Snow 18 -7.8 15 -9.4 88 88 NNW 9 15 30.39 1029 3 5 0.00 0.03
4:53 am 04:53 Cloudy with Light Snow 17 -8.3 15 -9.4 92 92 NNW 12 19 30.29 1026 7 11 0.00 0.03
5:02 am 05:02 Cloudy with Light Snow 17 -8.3 15 -9.4 92 92 NNW 10 17 30.42 1030 3 5 0.00 0.03
5:13 am 05:13 Cloudy with Light Snow 17 -8.3 14 -10 88 88 NNW 12 19 30.42 1030 3 4 0.00 0.03
5:21 am 05:21 Cloudy with Light Snow 17 -8.3 15 -9.4 92 92 N 9 15 30.42 1030 3 4 0.01 0.25
5:53 am 05:53 Cloudy with Light Snow 17 -8.3 14 -10 88 88 NNW 9 15 30.31 1026 3 5 0.01 0.25
6:10 am 06:10 Cloudy with Light Snow 16 -8.9 14 -10 92 92 N 12 19 30.42 1030 3 5 0.00 0.03
6:21 am 06:21 Cloudy with Light Snow 16 -8.9 13 -10.6 88 88 N 9 15 30.42 1030 3 5 0.00 0.03
6:38 am 06:38 Cloudy with Light Snow 16 -8.9 14 -10 92 92 N 6 9 30.42 1030 3 5 0.00 0.03
6:53 am 06:53 Cloudy with Light Snow 17 -8.3 13 -10.6 84 84 N 7 11 30.33 1027 2 3 0.00 0.03
7:06 am 07:06 Cloudy with Light Snow 17 -8.3 13 -10.6 84 84 N 7 11 30.45 1031 2 3 0.00 0.03
7:38 am 07:38 Cloudy with Light Snow 17 -8.3 13 -10.6 84 84 N 6 9 30.45 1031 1 2 0.00 0.03
7:53 am 07:53 Cloudy with Light Snow 17 -8.3 13 -10.6 84 84 NNE 7 11 30.35 1028 2 2 0.00 0.03
8:19 am 08:19 Cloudy with Light Snow 17 -8.3 14 -10 88 88 NNE 6 9 30.45 1031 2 3 0.00 0.03
8:30 am 08:30 Cloudy with Light Snow 18 -7.8 14 -10 84 84 NE 8 13 30.45 1031 2 3 0.01 0.25
8:41 am 08:41 Cloudy with Light Snow 17 -8.3 13 -10.6 84 84 NE 8 13 30.45 1031 3 5 0.01 0.25
8:48 am 08:48 Cloudy with Light Snow 18 -8 12 -11 79 79 NE 8 13 30.45 1031 3 5 0.01 0.25
8:53 am 08:53 Cloudy with Light Snow 18 -7.8 13 -10.6 81 81 NNE 8 13 30.36 1028 3 4 0.01 0.25
9:01 am 09:01 Cloudy with Light Snow 18 -7.8 13 -10.6 81 81 NE 7 11 30.45 1031 3 5 0.00 0.03
9:25 am 09:25 Cloudy with Light Snow 18 -7.8 13 -10.6 81 81 NE 8 13 30.45 1031 3 4 0.00 0.03
9:29 am 09:29 Cloudy with Light Snow 18 -7.8 14 -10 84 84 NE 8 13 30.45 1031 1 2 0.00 0.03
9:45 am 09:45 Cloudy with Light Snow 19 -7.2 13 -10.6 77 77 NE 8 13 30.42 1030 3 5 0.00 0.03
9:53 am 09:53 Cloudy with Haze 19 -7.2 13 -10.6 77 77 NE 8 13 30.36 1028 6 10 0.00 0.03
10:17 am 10:17 Cloudy with Haze 20 -6.7 14 -10 78 78 ENE 7 11 30.42 1030 5 8 0.00 0.00
10:27 am 10:27 Cloudy with Light Snow 19 -7.2 14 -10 81 81 NE 8 13 30.42 1030 3 5 0.00 0.03
10:37 am 10:37 Cloudy with Light Snow 20 -6.7 14 -10 78 78 NE 7 11 30.42 1030 3 5 0.00 0.03
10:53 am 10:53 Cloudy with Haze 20 -6.7 14 -10 78 78 ENE 8 13 30.36 1028 6 10 0.00 0.03
11:06 am 11:06 Cloudy with Light Snow 20 -6.7 14 -10 78 78 ENE 7 11 30.42 1030 2 3 0.00 0.03
11:14 am 11:14 Cloudy with Light Snow 20 -6.7 15 -9.4 81 81 ENE 8 13 30.42 1030 1 2 0.00 0.03
11:31 am 11:31 Cloudy with Light Snow 20 -6.7 15 -9.4 81 81 ENE 8 13 30.42 1030 2 2 0.00 0.03
11:48 am 11:48 Cloudy with Light Snow 21 -6 16 -9 80 80 ENE 7 11 30.42 1030 1 2 0.01 0.25
11:53 am 11:53 Cloudy with Light Snow 20 -6.7 15 -9.4 81 81 ENE 7 11 30.41 1030 1 2 0.01 0.25
12:05 pm 12:05 Cloudy with Light Snow 21 -6.1 16 -8.9 81 81 E 7 11 30.42 1030 1 2 0.00 0.03
12:17 pm 12:17 Cloudy with Light Snow 20 -6.7 16 -8.9 85 85 ENE 8 13 30.42 1030 3 4 0.00 0.03
12:21 pm 12:21 Cloudy with Light Snow 20 -6.7 16 -8.9 85 85 ENE 7 11 30.42 1030 3 5 0.00 0.03
12:28 pm 12:28 Cloudy with Light Snow 21 -6.1 16 -8.9 81 81 ENE 9 15 30.42 1030 3 4 0.00 0.03
12:32 pm 12:32 Cloudy with Light Snow 21 -6.1 16 -8.9 81 81 ENE 8 13 30.42 1030 3 5 0.00 0.03
12:53 pm 12:53 Cloudy with Light Snow 20 -6.7 15 -9.4 81 81 NE 7 11 30.40 1030 3 5 0.00 0.03
12:57 pm 12:57 Cloudy with Light Snow 20 -6.7 15 -9.4 81 81 NE 7 11 30.42 1030 2 3 0.00 0.03
1:17 pm 13:17 Cloudy with Light Snow 21 -6.1 14 -10 74 74 NE 7 11 30.42 1030 2 3 0.00 0.03
1:53 pm 13:53 Cloudy with Light Snow 22 -5.6 17 -8.3 82 82 ENE 8 13 30.39 1029 2 3 0.01 0.25
2:13 pm 14:13 Cloudy with Light Snow 22 -5.6 17 -8.3 82 82 ENE 10 17 30.39 1029 2 3 0.00 0.03
2:53 pm 14:53 Cloudy with Light Snow 22 -5.6 17 -8.3 82 82 ENE 9 15 30.39 1029 2 3 0.00 0.03
3:13 pm 15:13 Cloudy with Light Snow 21 -6.1 17 -8.3 85 85 ENE 9 15 30.42 1030 4 6 0.00 0.03
3:28 pm 15:28 Cloudy with Light Snow 21 -6.1 17 -8.3 85 85 ENE 8 13 30.42 1030 3 4 0.00 0.03
3:38 pm 15:38 Cloudy with Light Snow 21 -6.1 17 -8.3 85 85 E 9 15 30.42 1030 1 2 0.01 0.25
3:53 pm 15:53 Cloudy with Light Snow 21 -6.1 17 -8.3 85 85 ENE 10 17 30.39 1029 1 2 0.01 0.25
4:09 pm 16:09 Cloudy with Light Snow 21 -6.1 17 -8.3 85 85 E 10 17 30.36 1028 1 1 0.01 0.25
4:25 pm 16:25 Cloudy with Light Snow 21 -6.1 18 -7.8 88 88 NE 10 17 30.42 1030 1 1 0.02 0.51
4:34 pm 16:34 Cloudy with Light Snow 21 -6.1 17 -8.3 85 85 ENE 12 19 30.36 1028 1 1 0.02 0.51
4:42 pm 16:42 Cloudy with Light Snow 21 -6.1 17 -8.3 85 85 ENE 9 15 30.36 1028 1 1 0.02 0.51
4:46 pm 16:46 Cloudy with Light Snow 21 -6.1 17 -8.3 85 85 ENE 8 13 30.36 1028 1 1 0.02 0.51
4:50 pm 16:50 Cloudy with Light Snow 21 -6 18 -8 86 86 ENE 9 15 30.36 1028 1 2 0.03 0.76
4:53 pm 16:53 Cloudy with Light Snow 21 -6.1 17 -8.3 85 85 ENE 8 13 30.39 1029 1 2 0.03 0.76
5:11 pm 17:11 Cloudy with Light Snow 21 -6.1 17 -8.3 85 85 ENE 8 13 30.36 1028 1 2 0.00 0.03
5:30 pm 17:30 Cloudy with Light Snow 21 -6.1 17 -8.3 85 85 E 10 17 30.36 1028 2 2 0.01 0.25
5:39 pm 17:39 Cloudy with Light Snow 21 -6.1 17 -8.3 85 85 ENE 10 17 30.42 1030 2 3 0.01 0.25
5:53 pm 17:53 Cloudy with Light Snow 21 -6.1 17 -8.3 85 85 ENE 10 17 30.40 1029 2 3 0.01 0.25
6:12 pm 18:12 Cloudy with Light Snow 20 -6.7 17 -8.3 89 89 ENE 12 19 30.42 1030 2 3 0.00 0.03
6:19 pm 18:19 Cloudy with Light Snow 20 -6.7 17 -8.3 89 89 ENE 14 22 30.42 1030 1 2 0.00 0.03
6:25 pm 18:25 Cloudy with Light Snow 20 -6.7 17 -8.3 89 89 NE 14 22 30.42 1030 1 1 0.00 0.03
6:37 pm 18:37 Cloudy with Light Snow 20 -6.7 17 -8.3 89 89 ENE 14 22 30.42 1030 1 1 0.01 0.25
6:53 pm 18:53 Cloudy with Light Snow 19 -7.2 16 -8.9 88 88 NE 17 28 30.41 1030 1 1 0.01 0.25
7:01 pm 19:01 Cloudy with Light Snow 19 -7.2 16 -8.9 88 88 ENE 16 26 30.42 1030 1 2 0.00 0.03
7:05 pm 19:05 Cloudy with Light Snow 19 -7.2 16 -8.9 88 88 ENE 17 28 30.42 1030 1 2 0.00 0.03
7:30 pm 19:30 Cloudy with Light Snow 18 -7.8 16 -8.9 92 92 NE 18 30 30.45 1031 1 1 0.01 0.25
7:53 pm 19:53 Cloudy with Light Snow 17 -8.3 15 -9.4 92 92 NE 18 30 30.42 1030 1 1 0.02 0.51
8:05 pm 20:05 Cloudy with Light Snow 17 -8.3 14 -10 88 88 ENE 18 30 30.45 1031 1 1 0.00 0.03
8:13 pm 20:13 Windy with Snow Likely 17 -8.3 14 -10 88 88 NE 20 31 30.45 1031 1 2 0.00 0.03
8:29 pm 20:29 Windy with Snow Likely 16 -8.9 13 -10.6 88 88 ENE 20 31 30.48 1032 0 0 0.00 0.03
8:36 pm 20:36 Cloudy with Light Snow 16 -8.9 12 -11.1 84 84 NE 17 28 30.48 1032 1 2 0.00 0.03
8:53 pm 20:53 Windy with Snow Likely 15 -9.4 12 -11.1 88 88 ENE 21 33 30.44 1031 2 3 0.01 0.25
9:12 pm 21:12 Cloudy with Light Snow 14 -10 11 -11.7 88 88 NE 18 30 30.50 1033 2 3 0.00 0.03
9:20 pm 21:20 Cloudy with Light Snow 14 -10 11 -11.7 88 88 NE 16 26 30.50 1033 2 2 0.01 0.25
9:35 pm 21:35 Cloudy with Light Snow 14 -10 12 -11.1 92 92 NE 16 26 30.50 1033 1 1 0.01 0.25
9:53 pm 21:53 Cloudy with Light Snow 14 -10 12 -11.1 92 92 NE 15 24 30.46 1031 1 1 0.02 0.51
10:08 pm 22:08 Cloudy with Light Snow 14 -10 12 -11.1 92 92 NE 14 22 30.50 1033 1 2 0.00 0.03
10:24 pm 22:24 Cloudy with Light Snow 14 -10 12 -11.1 92 92 NE 14 22 30.50 1033 1 2 0.01 0.25
10:53 pm 22:53 Cloudy with Light Snow 14 -10 12 -11.1 92 92 NE 14 22 30.47 1032 1 2 0.02 0.51
11:53 pm 23:53 Cloudy with Light Snow 14 -10 11 -11.7 88 88 NE 14 22 30.48 1032 1 2 0.02 0.51

Powered by AerisWeather